When you browse on this site, cookies collect data to enhance your experience and personalize the content and advertising you see.
Visit our Privacy Policy to learn more. By continuing to use the site, you agree to this use of cookies and data.
  • In Hungary
  • List of Countries
  • For 7 days
  • Water Temperature
  • Satellite Maps
  • Weather Map
  • News
  • Weather Widgets
  • user-avatar
    Login

    Hourly Weather Przyrab

    Today, 19 February, Tuesday

    Time Temperature Precipitation Wind Pressure Humidity
    00:00 +4°C° 0 mm 2 mps 745 mmHg 73%
    01:00 +4°C° 0 mm 2 mps 744 mmHg 77%
    02:00 +4°C° 0 mm 2 mps 744 mmHg 75%
    03:00 +4°C° 0 mm 2 mps 744 mmHg 74%
    04:00 +3°C° 0 mm 2 mps 743 mmHg 72%
    05:00 +3°C° 0 mm 2 mps 743 mmHg 70%
    06:00 +3°C° 0 mm 2 mps 743 mmHg 68%
    07:00 +3°C° 0 mm 2 mps 743 mmHg 66%
    08:00 +3°C° 0 mm 3 mps 743 mmHg 61%
    09:00 +5°C° 0 mm 3 mps 743 mmHg 56%
    10:00 +7°C° 0 mm 4 mps 743 mmHg 50%
    11:00 +8°C° 0 mm 4 mps 742 mmHg 49%
    12:00 +9°C° 0 mm 5 mps 742 mmHg 48%
    13:00 +11°C° 0 mm 6 mps 742 mmHg 46%
    14:00 +10°C° 0 mm 5 mps 742 mmHg 49%
    15:00 +10°C° 0 mm 5 mps 741 mmHg 52%
    16:00 +10°C° 0 mm 4 mps 741 mmHg 54%
    17:00 +8°C° 0 mm 4 mps 741 mmHg 60%
    18:00 +7°C° 0 mm 5 mps 741 mmHg 65%
    19:00 +6°C° 0 mm 5 mps 742 mmHg 70%
    20:00 +6°C° 0 mm 5 mps 742 mmHg 72%
    21:00 +5°C° 0 mm 5 mps 742 mmHg 74%
    22:00 +5°C° 0 mm 5 mps 742 mmHg 76%
    23:00 +5°C° 0.2 mm 5 mps 742 mmHg 79%

    Tomorrow, 20 February, Wednesday

    Time Temperature Precipitation Wind Pressure Humidity
    00:00 +5°C° 0.2 mm 5 mps 742 mmHg 83%
    01:00 +5°C° 0.2 mm 5 mps 742 mmHg 86%
    02:00 +3°C° 0 mm 5 mps 742 mmHg 88%
    03:00 +2°C° 0 mm 5 mps 742 mmHg 89%
    04:00 +2°C° 0 mm 5 mps 742 mmHg 90%
    05:00 +2°C° 0 mm 5 mps 742 mmHg 90%
    06:00 +1°C° 0 mm 5 mps 742 mmHg 90%
    07:00 +1°C° 0 mm 5 mps 743 mmHg 89%
    08:00 +2°C° 0 mm 6 mps 743 mmHg 86%
    09:00 +2°C° 0 mm 6 mps 743 mmHg 83%
    10:00 +3°C° 0 mm 6 mps 744 mmHg 80%
    11:00 +3°C° 0.1 mm 6 mps 744 mmHg 75%
    12:00 +4°C° 0.1 mm 7 mps 744 mmHg 70%
    13:00 +4°C° 0.1 mm 7 mps 744 mmHg 65%
    14:00 +4°C° 0.1 mm 7 mps 744 mmHg 66%
    15:00 +4°C° 0.1 mm 6 mps 745 mmHg 67%
    16:00 +4°C° 0.1 mm 6 mps 745 mmHg 68%
    17:00 +4°C° 0 mm 6 mps 745 mmHg 70%
    18:00 +3°C° 0 mm 5 mps 745 mmHg 73%
    19:00 +3°C° 0 mm 5 mps 746 mmHg 75%
    20:00 +3°C° 0 mm 5 mps 746 mmHg 76%
    21:00 +3°C° 0 mm 5 mps 746 mmHg 76%
    22:00 +4°C° 0 mm 4 mps 747 mmHg 77%
    23:00 +4°C° 0 mm 4 mps 747 mmHg 78%

    Day after tomorrow, 21 February, Thursday

    Time Temperature Precipitation Wind Pressure Humidity
    00:00 +4°C° 0 mm 4 mps 747 mmHg 79%
    01:00 +4°C° 0 mm 4 mps 747 mmHg 81%
    02:00 +4°C° 0 mm 4 mps 747 mmHg 82%
    03:00 +3°C° 0 mm 4 mps 747 mmHg 84%
    04:00 +2°C° 0 mm 5 mps 747 mmHg 86%
    05:00 +2°C° 0 mm 5 mps 747 mmHg 86%
    06:00 +2°C° 0 mm 5 mps 747 mmHg 85%
    07:00 +2°C° 0 mm 5 mps 747 mmHg 85%
    08:00 +3°C° 0.1 mm 5 mps 747 mmHg 81%
    09:00 +3°C° 0.1 mm 6 mps 747 mmHg 77%
    10:00 +4°C° 0.1 mm 6 mps 747 mmHg 73%
    11:00 +4°C° 0.2 mm 6 mps 746 mmHg 73%
    12:00 +5°C° 0.2 mm 7 mps 746 mmHg 73%
    13:00 +5°C° 0.2 mm 7 mps 746 mmHg 73%
    14:00 +5°C° 0.3 mm 7 mps 746 mmHg 74%
    15:00 +5°C° 0.3 mm 7 mps 745 mmHg 76%
    16:00 +4°C° 0.3 mm 6 mps 745 mmHg 77%
    17:00 +4°C° 0.8 mm 6 mps 745 mmHg 79%
    18:00 +4°C° 0.8 mm 6 mps 745 mmHg 82%
    19:00 +4°C° 0.8 mm 6 mps 745 mmHg 84%
    20:00 +4°C° 0.3 mm 6 mps 745 mmHg 85%
    21:00 +4°C° 0.3 mm 6 mps 745 mmHg 86%
    22:00 +4°C° 0.3 mm 6 mps 744 mmHg 88%
    23:00 +4°C° 0.6 mm 6 mps 744 mmHg 88%

    22 February, Friday

    Time Temperature Precipitation Wind Pressure Humidity
    00:00 +4°C° 0.6 mm 6 mps 744 mmHg 89%
    01:00 +4°C° 0.6 mm 6 mps 744 mmHg 90%
    02:00 +4°C° 0.2 mm 6 mps 744 mmHg 90%
    03:00 +4°C° 0.2 mm 6 mps 744 mmHg 89%
    04:00 +4°C° 0.2 mm 7 mps 744 mmHg 89%
    05:00 +3°C° 0.2 mm 7 mps 745 mmHg 86%
    06:00 0°C° 0.2 mm 7 mps 746 mmHg 84%
    07:00 -1°C° 0.2 mm 8 mps 747 mmHg 82%
    08:00 -2°C° 0 mm 7 mps 749 mmHg 78%
    09:00 -2°C° 0 mm 6 mps 750 mmHg 74%
    10:00 -3°C° 0 mm 6 mps 751 mmHg 70%
    11:00 -2°C° 0 mm 6 mps 752 mmHg 65%
    12:00 -2°C° 0 mm 6 mps 753 mmHg 59%
    13:00 -1°C° 0 mm 6 mps 754 mmHg 53%
    14:00 -1°C° 0 mm 5 mps 754 mmHg 53%
    15:00 -1°C° 0 mm 5 mps 754 mmHg 53%
    16:00 -2°C° 0 mm 5 mps 755 mmHg 53%
    17:00 -2°C° 0 mm 5 mps 755 mmHg 55%
    18:00 -3°C° 0 mm 4 mps 756 mmHg 58%
    19:00 -4°C° 0 mm 4 mps 757 mmHg 60%
    20:00 -4°C° 0 mm 3 mps 757 mmHg 59%
    21:00 -4°C° 0 mm 3 mps 757 mmHg 57%
    22:00 -3°C° 0 mm 2 mps 757 mmHg 55%
    23:00 -3°C° 0 mm 2 mps 758 mmHg 55%

    23 February, Saturday

    Time Temperature Precipitation Wind Pressure Humidity
    00:00 -3°C° 0 mm 2 mps 758 mmHg 55%
    01:00 -3°C° 0 mm 2 mps 758 mmHg 54%
    02:00 -4°C° 0 mm 3 mps 758 mmHg 54%
    03:00 -5°C° 0 mm 3 mps 757 mmHg 55%
    04:00 -5°C° 0 mm 3 mps 757 mmHg 55%
    05:00 -5°C° 0 mm 3 mps 757 mmHg 54%
    06:00 -5°C° 0 mm 3 mps 757 mmHg 53%
    07:00 -5°C° 0 mm 3 mps 758 mmHg 53%
    08:00 -4°C° 0 mm 3 mps 758 mmHg 47%
    09:00 -4°C° 0 mm 3 mps 758 mmHg 42%
    10:00 -2°C° 0 mm 3 mps 758 mmHg 37%
    11:00 -1°C° 0 mm 3 mps 758 mmHg 34%
    12:00 -1°C° 0 mm 3 mps 757 mmHg 31%
    13:00 0°C° 0 mm 3 mps 757 mmHg 28%
    14:00 0°C° 0 mm 3 mps 757 mmHg 29%
    15:00 0°C° 0 mm 3 mps 757 mmHg 31%
    16:00 +1°C° 0 mm 2 mps 756 mmHg 33%
    17:00 -1°C° 0 mm 2 mps 756 mmHg 36%
    18:00 -1°C° 0 mm 2 mps 756 mmHg 39%
    19:00 -1°C° 0 mm 2 mps 757 mmHg 43%
    20:00 -2°C° 0 mm 2 mps 757 mmHg 45%
    21:00 -2°C° 0 mm 2 mps 757 mmHg 47%
    22:00 -2°C° 0 mm 2 mps 756 mmHg 49%
    23:00 0°C° 0 mm 1 mps 756 mmHg 52%

    24 February, Sunday

    Time Temperature Precipitation Wind Pressure Humidity
    00:00 -1°C° 0 mm 1 mps 756 mmHg 55%
    01:00 -1°C° 0 mm 1 mps 756 mmHg 58%
    02:00 -1°C° 0 mm 1 mps 756 mmHg 60%
    03:00 -1°C° 0 mm 1 mps 756 mmHg 62%
    04:00 -2°C° 0 mm 1 mps 756 mmHg 63%
    05:00 -2°C° 0 mm 1 mps 757 mmHg 64%
    06:00 -2°C° 0 mm 1 mps 757 mmHg 65%
    07:00 -2°C° 0 mm 1 mps 757 mmHg 65%
    08:00 -1°C° 0 mm 1 mps 757 mmHg 61%
    09:00 0°C° 0 mm 1 mps 758 mmHg 57%
    10:00 +1°C° 0 mm 1 mps 758 mmHg 52%
    11:00 +2°C° 0 mm 1 mps 758 mmHg 51%
    12:00 +2°C° 0 mm 1 mps 758 mmHg 49%
    13:00 +3°C° 0 mm 1 mps 758 mmHg 48%
    14:00 +3°C° 0 mm 1 mps 757 mmHg 50%
    15:00 +3°C° 0 mm 1 mps 757 mmHg 51%
    16:00 +3°C° 0 mm 1 mps 757 mmHg 53%
    17:00 +2°C° 0 mm 1 mps 757 mmHg 58%
    18:00 +1°C° 0 mm 1 mps 758 mmHg 62%
    19:00 0°C° 0 mm 1 mps 758 mmHg 66%
    20:00 0°C° 0 mm 1 mps 758 mmHg 67%
    21:00 -1°C° 0 mm 0 mps 758 mmHg 68%
    22:00 -1°C° 0 mm 0 mps 758 mmHg 69%
    23:00 -1°C° 0 mm 0 mps 758 mmHg 69%
    Show more